Location: Spruce Knob
(38.6995°N, 79.5330°W)
Time: 02:23:09
(UTC-04:00)

BUGSAT 1 - Visible Passes

Search period start: 03 October 2023 00:00
Search period end: 13 October 2023 00:00
Orbit: 542 x 588 km, 98.1° (Epoch: 02 October)

Date Brightness Start Highest point End Pass type
(mag) Time Alt. Az. Time Alt. Az. Time Alt. Az.
03 Oct ? 20:45:26 10° SSW 20:48:53 27° W 20:52:25 10° NW visible
04 Oct ? 20:45:46 10° SSW 20:49:14 27° W 20:52:45 10° NW visible
05 Oct ? 20:46:05 10° SSW 20:49:33 27° W 20:53:05 10° NW visible
06 Oct ? 19:11:50 10° ESE 19:15:03 22° ENE 19:18:18 10° NNE visible
06 Oct ? 20:46:23 10° SSW 20:49:52 27° W 20:53:24 10° NW visible
07 Oct ? 19:12:08 10° ESE 19:15:21 23° ENE 19:18:36 10° NNE visible
07 Oct ? 20:46:41 10° SSW 20:50:10 27° W 20:53:42 10° NW visible
08 Oct ? 19:12:24 10° ESE 19:15:38 23° ENE 19:18:53 10° NNE visible
08 Oct ? 20:46:58 10° SSW 20:50:27 27° W 20:53:59 10° NW visible
09 Oct ? 19:12:40 10° ESE 19:15:54 23° ENE 19:19:10 10° NNE visible
09 Oct ? 20:47:14 10° SSW 20:50:43 27° W 20:54:16 10° NW visible
10 Oct ? 19:12:56 10° ESE 19:16:10 23° ENE 19:19:26 10° NNE visible
10 Oct ? 20:47:29 10° SSW 20:50:59 27° W 20:54:31 10° NW visible
11 Oct ? 19:13:10 10° ESE 19:16:25 23° ENE 19:19:41 10° NNE visible
11 Oct ? 20:47:43 10° SSW 20:51:14 27° W 20:54:46 10° NW visible
12 Oct ? 19:13:24 10° ESE 19:16:39 23° ENE 19:19:55 10° NNE visible
12 Oct ? 20:47:57 10° SSW 20:51:27 27° W 20:55:00 10° NW visible
